Location: Albany
(35.0000°S, 118.0000°E)
Time: 14:23:03
(UTC-04:00)

ISS - Visible Passes

Search period start: 22 June 2021 00:00
Search period end: 02 July 2021 00:00
Orbit: 417 x 422 km, 51.6° (Epoch: 22 June)

Date Brightness Start Highest point End Pass type
(mag) Time Alt. Az. Time Alt. Az. Time Alt. Az.
22 Jun -2.6 05:57:48 10° WNW 06:01:01 38° SW 06:03:47 13° SSE visible
23 Jun -1.0 06:49:37 10° SW 06:50:53 12° SSW 06:51:20 11° SSW visible
24 Jun -1.3 06:00:57 10° WSW 06:03:11 16° SSW 06:05:27 10° SSE visible
